sat.trackr.live / text

‹ back to catalog

QIANFAN-83

NORAD 63169 · 2025-046L

PAYLOAD ACTIVE UNKNOWN

§ Identity

Operator
Country
PRC
Launch date
2025-03-11
Launch site
WSC
Launch vehicle
Mass (kg)
RCS (m²)

External: N2YO · Heavens-Above · Gunter

§ Orbital elements

Epoch: 2026-09-22T20:34:40.771776Z

Period
105.72 min
Inclination
88.9644°
Eccentricity
0.0013907
Mean motion
13.62065096 rev/d
Perigee alt
1,017.9 km
Apogee alt
1,038.5 km
Semi-major
7,406.3 km
B*
6.4707e-5
RAAN
289.6321°
Arg perigee
5.8200°
Mean anomaly
354.3117°
Rev number
8,627

§ Raw data

QIANFAN-831 63169U 25046L   26265.85741634  .00000062  00000+0  64707-4 0  99962 63169  88.9644 289.6321 0013907   5.8200 354.3117 13.62065096 86277

JSON: /api/v1/satellites/63169 · /tle

For live sub-satellite position, see the globe view (requires WebGL).

§ Visibility from observer

Set your observer location to see the next 7 days of passes ≥ 10°. The values pass through the URL so the page stays shareable.

No JS? Fill the form by hand. The geolocation button needs JavaScript.